Location: Rochester
(43.1547°N, 77.6158°W)
Time: 20:44:10
(UTC-04:00)

Envisat - Visible Passes

Search period start: 24 April 2018 00:00
Search period end: 04 May 2018 00:00
Orbit: 764 x 766 km, 98.2° (Epoch: 24 April)

Date Brightness Start Highest point End Pass type
(mag) Time Alt. Az. Time Alt. Az. Time Alt. Az.
24 Apr 5.3 21:36:12 10° SW 21:40:08 22° W 21:44:05 10° NW visible
25 Apr 4.0 20:58:16 10° S 21:03:09 48° W 21:08:06 10° NNW visible
26 Apr 5.8 22:03:48 10° WSW 22:06:00 13° W 22:08:13 10° WNW visible
27 Apr 4.9 21:24:34 10° SSW 21:28:53 28° W 21:33:14 10° NW visible
28 Apr 3.6 20:46:58 10° S 20:51:59 61° W 20:57:02 10° NNW visible
29 Apr 5.6 21:51:35 10° SW 21:54:43 16° W 21:57:51 10° NW visible
30 Apr 4.6 21:13:03 10° SSW 21:17:40 35° W 21:22:19 10° NNW visible
01 May 3.2 20:35:44 10° S 20:40:49 77° WSW 20:45:55 10° NNW visible
02 May 5.4 21:39:43 10° SW 21:43:27 20° W 21:47:12 10° NW visible
03 May 4.2 21:01:38 10° S 21:06:28 44° W 21:11:19 10° NNW visible
